STARLINK-30090, 56293

Orbit data source: Space-Track

STARLINK-30090, 56293 is a payload satellite owned by SpaceX/Seattle (US) in LEO that was launched on Wed, 19 Apr 2023 UTC via an FALCON 9 launch vehicle from the Air Force Eastern Test Range (AFETR). Payload-class satellites include a variety of spacecraft equipped with specific instruments for various scientific and technological missions. These include communications satellites like Starlink; space stations such as the ISS; scientific satellites like the Hubble; Earth observation satellites from companies like Planet Labs, Umbra, and HawkEye 360; GPS; miniature CubeSats for education and research; and military/defense satellites.

Loading next visibility...
Identifier
56293, 2023-056H
Orbit
LEO
Last TLE update
13 hours ago
Origin
Manufacturer
SpaceX/Seattle
Mission
Operational Commercial Communications
Bus & Motor
STARLINK V2M, Unknown motor
Mass
730 kg wet, ~700 kg dry
Launch date (UTC)
2023-04-19 (2 years ago)
Launch vehicle
FALCON 9
Launch site
Air Force Eastern Test Range (AFETR)
Object type
Payload
Rocket body
Debris
Shape & HBR
Box + 2 Pan, 29 m
Radar Cross Section
33.884 m², Large (>1 m²)

Expand to show TLE details & history

TLE from 13 hours ago
0 STARLINK-30090
1 56293U 23056H   25130.51574229  .00001600  00000-0  13346-3 0  9994
2 56293  43.0048  58.0567 0001148 273.8202  86.2509 15.02551174114417
Epoch: 2025-05-10T12:22Z
Definitive object data (Epoch: 2025-05-10T12:22:40.133Z)
Latitude
-0.00004°
Longitude
3.83302°
Altitude
558.759 km
Speed
7.584 km/s
True Right ascension
03h 52m 13s
True Declination
0° 00' 00"
Sunlit
Object was in daylight at TLE epoch
Visualization TLE readout
Latitude
41.15206°
Longitude
112.09977°
Altitude
562.546 km
Speed
7.585 km/s
Apparent Right ascension
15h 42m 18s
Apparent Declination
16° 11' 00"
Sunlit
Object is in daylight
Visualization observer readout
Local Sidereal Time
09:52:32
Azimuth
79.012° E
Elevation
12.222°
Doppler factor
1
Orbital elements
Apogee altitude
561.753 km
Perigee altitude
560.159 km
Semi-major axis
6,939.093 km
Eccentricity
0.0001148
Inclination
43.0048°
RAAN
58.0567°
Arg. of periapsis
273.8202°
True anomaly
86.26403°
Mean anomaly
86.2509°
Eccentric anomaly
86.25746°
Mean motion
3.75482 °/min
BSTAR
0.00013346
Orbital period
95.88 mins
Loading maneuver chart data...
Loading SW <> Apogee altitude chart data...
Loading historical data...
Loading historical data...
Loading historical data...
Loading historical data...
Loading historical data...
Loading historical data...
Loading historical data...

STARLINK-30090 Visibility forecast

Observer location: undefined°, undefined°

Span
Click to sort rows by Start time (UTC) header in descending order
Start Az.
Max El. time (UTC)
Max El. Az.
Max El.
End time (UTC)
End Az.
7 mins2025-05-11 03:10:37.054Z287.449° WNW2025-05-11 03:13:37.054Z241.154° WSW44.89°2025-05-11 03:17:37.054Z111.351° ESE
4 mins2025-05-11 04:52:37.054Z244.767° WSW2025-05-11 04:53:37.054Z224.572° SW21.576°2025-05-11 04:56:37.054Z169.119° S
6 mins2025-05-11 22:05:37.054Z213.02° SW2025-05-11 22:08:37.054Z140.399° SSE32.887°2025-05-11 22:11:37.054Z84.148° E
6 mins2025-05-11 23:46:37.054Z268.369° W2025-05-11 23:48:37.054Z313.252° NW42.38°2025-05-11 23:52:37.054Z70.632° E
6 mins2025-05-12 01:27:37.054Z294.609° NW2025-05-12 01:29:37.054Z346.868° N39.715°2025-05-12 01:33:37.054Z84.252° E
|